This demonstration page uses our WeatherBlox Daily Observations layout. Learn more.

Left ArrowRight Arrow

36.17497, -115.13722

Hourly Observations for October 17, 2016

Temp ( °F °C ) Dew Point ( °F °C ) Humidity (%) Winds ( mph kmh ) Pressure ( in mb ) Visibility ( mi km ) Precip ( " mm )
12:53 am 00:53 Clear 70 21.1 40 4.4 34 34 SW 17 28 29.68 1005 10 16.0934 0 0
1:53 am 01:53 Clear 70 21.1 42 5.6 37 37 SW 32 52 29.62 1003 10 16.0934 0 0
2:53 am 02:53 Clear 71 21.7 43 6.1 36 36 WSW 29 46 29.63 1004 10 16.0934 0 0
3:53 am 03:53 Clear 70 21.1 45 7.2 41 41 SW 21 33 29.64 1004 10 16.0934 0 0
4:53 am 04:53 Clear 69 20.6 45 7.2 42 42 S 22 35 29.67 1005 10 16.0934 0 0
5:53 am 05:53 Clear 68 20 46 7.8 45 45 SW 16 26 29.71 1006 10 16.0934 0 0
6:53 am 06:53 Sunny 67 19.4 45 7.2 45 45 W 13 20 29.75 1007 10 16.0934 0 0
7:53 am 07:53 Sunny 67 19.4 46 7.8 47 47 VRB 3 6 29.79 1009 10 16.0934 0 0
8:53 am 08:53 Sunny 71 21.7 46 7.8 41 41 NE 5 7 29.81 1009 10 16.0934 0 0
9:53 am 09:53 Sunny 73 22.8 46 7.8 38 38 Calm 29.83 1010 10 16.0934 0 0
10:53 am 10:53 Sunny 75 23.9 44 6.7 33 33 N 6 9 29.83 1010 10 16.0934 0 0
11:53 am 11:53 Sunny 77 25 44 6.7 31 31 VRB 7 11 29.83 1010 10 16.0934 0 0
12:53 pm 12:53 Sunny 78 25.6 44 6.7 30 30 NE 10 17 29.82 1010 10 16.0934 0 0
1:53 pm 13:53 Sunny 78 25.6 44 6.7 30 30 Calm 29.8 1009 10 16.0934 0 0
2:53 pm 14:53 Sunny 79 26.1 43 6.1 28 28 E 7 11 29.79 1009 10 16.0934 0 0
3:53 pm 15:53 Sunny 79 26.1 43 6.1 28 28 NNW 3 6 29.78 1009 10 16.0934 0 0
4:53 pm 16:53 Sunny 79 26.1 42 5.6 27 27 SSW 8 13 29.77 1008 10 16.0934 0 0
5:53 pm 17:53 Sunny 78 25.6 40 4.4 26 26 ESE 6 9 29.78 1008 10 16.0934 0 0
6:53 pm 18:53 Clear 76 24.4 38 3.3 25 25 S 7 11 29.79 1009 10 16.0934 0 0
7:53 pm 19:53 Clear 75 23.9 40 4.4 28 28 SSW 3 6 29.81 1010 10 16.0934 0 0
8:53 pm 20:53 Clear 74 23.3 40 4.4 29 29 NNW 8 13 29.82 1010 10 16.0934 0 0
9:53 pm 21:53 Clear 72 22.2 40 4.4 31 31 N 6 9 29.83 1010 10 16.0934 0 0
10:53 pm 22:53 Clear 70 21.1 39 3.9 32 32 Calm 29.84 1011 10 16.0934 0 0
11:53 pm 23:53 Clear 68 20 40 4.4 36 36 W 6 9 29.84 1011 10 16.0934 0 0

Powered by AerisWeather